TimeEST,TemperatureF,Dew PointF,Humidity,Sea Level PressureIn,VisibilityMPH,Wind Direction,Wind SpeedMPH,Gust SpeedMPH,PrecipitationIn,Events,Conditions,WindDirDegrees,DateUTC
12:53 AM,21.9,21.0,96,30.18,6.0,Calm,Calm,-,N/A,,Mostly Cloudy,0,2013-02-25 05:53:00
1:53 AM,18.0,18.0,100,30.19,5.0,Calm,Calm,-,N/A,,Partly Cloudy,0,2013-02-25 06:53:00
2:53 AM,18.0,16.0,92,30.19,6.0,Calm,Calm,-,N/A,,Clear,0,2013-02-25 07:53:00
3:53 AM,17.1,15.1,92,30.18,7.0,Calm,Calm,-,N/A,,Clear,0,2013-02-25 08:53:00
4:53 AM,16.0,12.9,88,30.19,7.0,Calm,Calm,-,N/A,,Clear,0,2013-02-25 09:53:00
5:53 AM,16.0,14.0,92,30.19,8.0,Calm,Calm,-,N/A,,Clear,0,2013-02-25 10:53:00
6:53 AM,15.1,12.0,88,30.22,8.0,Calm,Calm,-,N/A,,Clear,0,2013-02-25 11:53:00
7:53 AM,18.0,15.1,88,30.24,6.0,Calm,Calm,-,N/A,,Clear,0,2013-02-25 12:53:00
8:53 AM,26.1,24.1,92,30.25,4.0,Calm,Calm,-,N/A,,Clear,0,2013-02-25 13:53:00
9:53 AM,35.1,24.1,64,30.22,10.0,East,4.6,-,N/A,,Clear,80,2013-02-25 14:53:00
10:53 AM,37.0,21.9,54,30.22,10.0,ENE,5.8,-,N/A,,Clear,70,2013-02-25 15:53:00
11:53 AM,37.9,23.0,55,30.23,10.0,Variable,5.8,-,N/A,,Scattered Clouds,0,2013-02-25 16:53:00
12:53 PM,39.0,24.1,55,30.20,10.0,South,6.9,-,N/A,,Partly Cloudy,180,2013-02-25 17:53:00
1:53 PM,39.9,24.1,53,30.18,10.0,SW,5.8,-,N/A,,Clear,220,2013-02-25 18:53:00
2:53 PM,39.9,24.1,53,30.16,10.0,SSE,8.1,-,N/A,,Partly Cloudy,150,2013-02-25 19:53:00
3:53 PM,41.0,24.1,51,30.17,10.0,Variable,3.5,-,N/A,,Mostly Cloudy,0,2013-02-25 20:53:00
4:53 PM,39.0,21.9,50,30.16,10.0,ESE,5.8,-,N/A,,Clear,120,2013-02-25 21:53:00
5:53 PM,35.1,23.0,61,30.16,6.0,SE,4.6,-,N/A,,Haze,140,2013-02-25 22:53:00
6:53 PM,32.0,21.0,64,30.17,7.0,SE,5.8,-,N/A,,Clear,130,2013-02-25 23:53:00
7:53 PM,30.9,21.9,69,30.18,10.0,ESE,3.5,-,N/A,,Clear,120,2013-02-26 00:53:00
8:53 PM,30.0,21.9,72,30.14,10.0,East,5.8,-,N/A,,Clear,90,2013-02-26 01:53:00
9:53 PM,30.0,21.9,72,30.11,10.0,East,5.8,-,N/A,,Clear,80,2013-02-26 02:53:00
10:53 PM,28.9,21.0,72,30.13,10.0,East,4.6,-,N/A,,Clear,80,2013-02-26 03:53:00
11:53 PM,28.0,19.9,72,30.13,10.0,East,3.5,-,N/A,,Clear,90,2013-02-26 04:53:00